User: anonymous   Login
Location: Muenchen
(48.1800°N, 11.5800°E)
Time: 18:52:05
(UTC+02:00)
Language:

Iridium 73 - Orbit

View from above orbital plane
View from above orbital plane
View from above satellite
View from above satellite

Ground track
Ground track

The orbit data is extracted from the following two-line orbital elements,

1 25344U 98032C   15089.33439905  .00000925  00000-0  24036-3 0  9993
2 25344 086.4485 185.1114 0001652 106.2548 315.4363 14.48669480890299
Epoch (UTC): 30 March 2015 08:01:32
Eccentricity: 0.0001652
inclination: 86.4485°
perigee height: 729 km
apogee height: 731 km
right ascension of ascending node: 185.1114°
argument of perigee: 106.2548°
revolutions per day: 14.48669480
mean anomaly at epoch: 315.4363°
orbit number at epoch: 89029

The dashed part of the orbit path shows where the satellite is in the earth's shadow,  

DLR